Starlink 34297

operational
NORAD ID: 64261 Int'l Des: 2025-120 Owner: SPXS Country: US Constellation: starlink
LEOCIRCULAR

Über Starlink 34297

Beschreibung wird geladen...

Live-Position

3D-Globus wird geladen...

Nächste Überflüge

Höhenverlauf

Altitude vs Time

uPlot chart will show altitude changes over time

Zweizeiliger Elementsatz

1 64261U 25120F 25261.04389190 .00036114 00000-0 12270-2 0 9998
2 64261 53.1580 198.5954 0002087 132.4864 227.6313 15.30159613 17386
Epoch: 18. Sept. 2025 • Age: 25 hours

Aktueller Status

Höhe 479.1 km
Geschwindigkeit 7.63 km/s
Subsatellitenpunkt -10.09°S, 156.7°E
Startdatum 4. Juni 2025
Alter 0.2 years
Typ internet

Technische Details

Klassifizierung Payload
Masse 575.00 kg
Trockenmasse 530.00 kg
Gesamtmasse 575.00 kg
Länge 0.30 m
Durchmesser 4.10 m
Spannweite 29.00 m
Form Box + pan
Hersteller SPXS
Bus-Typ Starlink V2MO
Phasenstatus In Orbit
Besitzer/Staat SPXS/US

Große Konstellationen

Loading constellations...